Regional Weather Roundup
Issued by NWS

Home | Current Version | Previous Version | Text Only | Print | Product List | Glossary Off
Versions: 1 2 3 4 5 6 7 8 9 10 11 12 13 14 15 16 17 18 19 20 21 22 23 24 25 26 27 28 29 30 31 32 33 34 35 36 37 38 39 40 41 42 43 44 45 46 47 48 49 50

000
ASUS43 KOAX 280410
RWRNE

WEATHER ROUNDUP FOR NEBRASKA
NATIONAL WEATHER SERVICE OMAHA NE
1000 PM CST FRI FEB 27 2015

NOTES: SATELLITE DATA IS BEING USED TO AUGMENT CLOUD COVER ABOVE
       12000 FEET.
       "FAIR" INDICATES FEW OR NO CLOUDS BELOW 12,000 FEET WITH NO
       SIGNIFICANT WEATHER AND/OR OBSTRUCTIONS TO VISIBILITY.

  * THESE STATIONS DO NOT REPORT WEATHER SUCH AS RAIN...SNOW OR FOG.

NEZ001>004-019>022-054>056-280500-
NEBRASKA PANHANDLE

CITY           SKY/WX    TMP DP  RH WIND       PRES   REMARKS
SCOTTSBLUFF    CLOUDY    17   8  67 SE16      30.01S WCI   2
ALLIANCE       CLOUDY    16   7  67 S23G30    30.03S WCI  -2
CHADRON        CLEAR     18   7  62 S10       30.04R WCI   6
KIMBALL        PTCLDY     8   4  85 S14       29.95S WCI  -9
SIDNEY         PTCLDY     9   5  84 S15       30.04S WCI  -8
$$

NEZ057>060-069>072-079>082-280500-
SOUTHWEST NEBRASKA

CITY           SKY/WX    TMP DP  RH WIND       PRES   REMARKS
NORTH PLATTE   CLOUDY    17   5  59 S13       30.23S WCI   4
IMPERIAL         N/A     13   5  70 S15       30.18S WCI  -3
LEXINGTON      CLEAR     13   5  68 S12       30.31S WCI   0
MCCOOK         CLOUDY    19   7  59 S13       30.28S WCI   6
OGALLALA       CLOUDY    16   8  70 S13G20    30.17R WCI   2
$$

NEZ005>010-023>029-035>040-094-280500-
NORTH CENTRAL NEBRASKA

CITY           SKY/WX    TMP DP  RH WIND       PRES   REMARKS
VALENTINE      CLEAR     17   6  62 S10       30.19S WCI   5
AINSWORTH      CLEAR     13   1  58 S8        30.22S WCI   1
BROKEN BOW     CLEAR     13  -2  51 S12G23    30.29R WCI  -1
O`NEILL        CLEAR     14   0  54 S10       30.33S WCI   1
ORD            CLEAR     12  -4  48 S8        30.34R WCI   0
THEDFORD       CLOUDY    19   7  59 S15G21    30.20S WCI   5
$$

NEZ041-046>049-061>064-073>077-083>087-280500-
SOUTH CENTRAL NEBRASKA

CITY           SKY/WX    TMP DP  RH WIND       PRES   REMARKS
GRAND ISLAND   CLEAR     12   0  58 S9        30.41S WCI   0
AURORA         CLOUDY    13   1  56 S7        30.41S WCI   3
HASTINGS       PTCLDY    13   0  56 S8        30.39R WCI   2
HEBRON         CLOUDY    15   4  59 S7        30.47R WCI   6
HOLDREGE       FAIR      11   4  71 S9        30.34S WCI  -1
KEARNEY *      CLOUDY    12   0  57 SE9       30.36S WCI   0
YORK           PTCLDY    12   1  62 S8        30.44S WCI   1
$$

NEZ011>018-030>034-042>045-280500-
NORTHEAST NEBRASKA

CITY           SKY/WX    TMP DP  RH WIND       PRES   REMARKS
NORFOLK        CLEAR     11   2  67 SE9       30.42S WCI  -2
ALBION         FAIR       8  -2  62 SE5       30.40R WCI   0
BLAIR          CLEAR     11   3  68 SE6       30.49S WCI   2
COLUMBUS *     CLEAR     10  -6  48 SE7       30.45F WCI   0
FREMONT        FAIR      15   4  62 SE8       30.49S WCI   3
TEKAMAH        CLEAR     10   3  73 SE8       30.52S WCI  -2
WAYNE          CLEAR      8   2  78 SE12      30.45F WCI  -7
$$

NEZ050>053-065>068-078-088>093-280500-
SOUTHEAST NEBRASKA

CITY           SKY/WX    TMP DP  RH WIND       PRES   REMARKS
LINCOLN        CLEAR     10   0  63 S8        30.50S WCI  -2
OMAHA EPPLEY   CLEAR     11   3  70 SE9       30.54S WCI  -2
BEATRICE       CLOUDY    15   2  57 SE5       30.49S WCI   7
FALLS CITY     CLEAR     12   0  58 SE5       30.54S WCI   4
NEBRASKA CITY  PTCLDY    12  -5  46 SE5       30.52S WCI   4
PLATTSMOUTH    PTCLDY    11   0  59 SE6       30.51F WCI   2
$$

NEZ044-045-051>053-067-280500-
OMAHA AREA

CITY           SKY/WX    TMP DP  RH WIND       PRES   REMARKS
OMAHA EPPLEY   CLEAR     11   3  70 SE9       30.54S WCI  -2
BLAIR          CLEAR     11   3  68 SE6       30.49S WCI   2
FREMONT        FAIR      15   4  62 SE8       30.49S WCI   3
MILLARD        CLEAR     13   3  66 SE3       30.52F
OFFUTT AFB     CLEAR      8   2  76 E5        30.52S WCI  -1
PLATTSMOUTH    PTCLDY    11   0  59 SE6       30.51F WCI   2
WAHOO          FAIR       8   0  71 SE6       30.50S WCI  -3
$$



USA.gov is the U.S. government's official web portal to all federal, state and local government web resources and services.